Wind_Speed
44 45 44 43 42 42 42 43 43 43 43 42 42 40 39 38 37 35 34 34 33 32 31 31 30 29 29 28 28 28 27 27 27 26 27 27 27 27 27 27 27 27 27 27
46 46 43 42 42 42 43 43 43 43 43 43 43 41 40 39 38 37 36 35 35 34 33 33 32 31 30 30 29 29 29 28 28 28 28 28 28 28 28 28 28 28 28 28
45 44 43 44 43 43 43 43 42 43 42 44 45 44 41 40 39 39 38 37 36 35 35 34 34 33 32 31 31 31 30 29 29 29 30 30 30 29 29 30 29 29 29 29
46 44 45 46 45 44 44 42 43 43 44 44 46 47 42 41 40 39 39 38 37 37 36 36 35 35 34 33 32 32 32 31 30 31 31 30 30 30 31 30 30 30 30 30
46 45 45 46 46 45 44 43 44 44 46 47 46 49 44 41 41 39 38 39 38 38 37 37 36 36 35 34 34 33 33 32 32 32 32 31 32 32 32 31 31 31 31 31
45 45 46 46 45 46 45 45 45 46 47 49 46 48 48 42 40 39 38 38 38 38 38 37 37 36 36 35 35 34 34 34 33 33 33 32 33 33 32 32 32 32 32 31
44 46 46 47 46 46 46 46 47 48 49 49 46 49 48 42 40 39 39 39 39 39 39 38 38 37 37 36 36 36 35 35 34 34 33 33 34 34 33 33 33 33 32 32
44 45 46 47 47 46 46 46 47 47 49 48 48 50 47 43 41 39 39 39 40 40 40 39 39 39 38 37 37 37 36 35 35 34 34 34 34 34 34 33 33 33 33 33
44 44 44 46 46 46 45 46 46 47 49 49 50 49 47 44 42 40 40 40 39 39 39 39 39 39 39 38 38 37 37 37 36 35 35 35 35 35 34 34 34 34 34 34
42 44 44 44 45 47 46 45 45 47 48 50 51 49 47 44 41 39 39 39 39 39 39 39 39 39 39 39 39 39 38 38 38 37 36 36 36 36 36 35 35 35 36 36
41 43 44 45 45 45 46 46 46 48 49 49 50 49 45 44 42 40 39 38 38 39 39 39 39 39 40 40 39 39 39 39 38 38 38 37 37 37 36 36 36 36 37 37
41 43 44 45 45 45 46 46 46 48 50 50 50 49 44 44 42 41 40 39 39 40 40 40 40 40 40 40 40 40 40 40 39 39 39 38 37 37 37 37 37 38 38 38
41 42 43 43 45 45 45 45 47 49 49 51 51 50 44 43 43 42 42 40 40 40 40 40 41 41 41 41 41 41 41 41 41 40 39 39 38 38 38 38 38 38 39 39
41 42 44 44 44 45 45 45 46 48 49 50 50 48 45 44 43 43 43 42 41 41 41 41 40 40 41 42 42 42 42 42 41 40 40 40 39 39 39 39 39 39 40 40
42 43 43 44 45 46 47 45 45 47 48 49 48 48 45 44 44 43 43 42 42 42 41 41 41 40 41 42 42 42 42 41 41 41 41 40 40 40 40 40 40 40 40 41
43 43 43 44 45 48 49 47 45 46 47 48 48 47 44 45 46 45 44 44 43 43 43 42 41 41 42 42 42 42 42 41 41 41 41 40 40 40 40 40 41 41 42 42
42 42 44 45 44 48 51 47 45 46 46 46 47 45 45 47 47 47 45 45 44 44 44 44 44 43 42 42 42 42 42 41 41 41 40 40 40 40 40 41 41 42 42 42
40 41 43 44 45 50 48 45 45 45 45 45 45 45 45 46 46 46 46 45 44 44 44 44 45 44 42 42 42 42 42 41 41 41 41 40 40 40 41 41 41 42 43 43
38 40 41 42 43 46 46 44 44 46 46 44 44 44 45 46 46 47 46 45 44 43 43 43 44 44 42 42 42 42 42 42 42 42 41 41 41 41 42 42 42 42 43 43
37 39 41 42 43 43 39 40 43 45 45 42 43 44 44 45 46 45 44 45 44 43 43 42 42 43 43 42 43 43 42 42 42 42 41 41 42 42 42 43 43 43 43 44
37 38 40 41 43 42 37 37 41 44 42 42 42 43 44 45 44 43 44 45 45 44 43 41 41 42 42 42 43 43 42 42 41 42 42 41 42 42 43 43 43 43 44 44
38 39 40 40 42 39 36 37 39 40 40 41 42 42 43 43 42 42 43 43 44 44 44 42 41 41 42 42 42 42 42 41 41 41 42 42 41 42 42 43 44 44 44 45
41 39 39 41 41 38 38 39 39 39 39 39 42 42 43 42 42 41 41 41 41 42 43 42 41 41 41 41 41 41 41 41 41 42 42 42 42 42 42 44 44 45 45 45
41 41 42 42 40 39 39 40 40 40 40 39 40 42 42 43 43 42 40 40 40 41 41 42 42 41 41 41 41 41 41 41 42 42 42 42 42 42 43 43 44 44 44 45
40 42 43 44 42 41 40 40 40 41 41 40 40 41 42 42 41 41 41 40 40 41 42 43 42 42 41 41 41 41 42 41 41 41 42 42 42 43 43 43 43 43 44 45
38 42 44 44 42 43 41 40 41 43 42 41 41 41 41 42 41 40 40 40 40 40 41 42 42 42 41 41 41 41 41 41 41 40 41 41 42 42 43 43 43 44 45 45
Wind_Direction
237 237 237 238 238 239 240 241 242 243 243 243 244 243 244 246 248 249 250 251 253 254 256 259 260 262 265 267 270 272 275 277 278 281 283 286 287 288 289 290 292 295 296 298
237 237 238 238 237 238 241 241 243 244 245 245 244 243 244 245 248 248 249 251 253 254 255 258 261 263 264 267 269 271 274 276 277 280 282 284 285 286 287 289 291 293 294 296
239 238 238 237 236 237 240 242 243 245 246 247 246 244 243 244 246 248 249 251 252 254 255 258 260 263 264 266 269 270 273 275 277 279 280 282 283 285 287 288 290 292 292 294
239 237 238 237 237 238 241 242 244 245 246 247 248 247 242 246 246 248 250 251 253 255 256 257 259 261 263 265 267 270 272 274 276 278 280 281 282 284 286 288 289 289 291 293
238 237 239 240 239 240 242 242 244 245 246 247 247 250 245 246 248 248 251 253 254 256 257 258 259 260 262 264 266 268 271 273 275 277 279 280 281 283 285 286 287 288 290 291
238 238 239 240 240 241 242 243 244 246 247 248 247 251 250 248 249 250 253 255 256 256 257 258 259 260 261 264 265 267 270 272 274 276 278 279 280 282 284 286 287 288 289 290
240 239 239 239 240 241 242 243 245 246 248 250 249 251 252 251 252 253 255 256 258 258 258 259 259 260 262 263 265 266 268 271 273 275 276 278 279 281 283 284 286 287 288 289
243 242 240 240 241 242 244 244 245 248 251 253 253 253 252 253 253 254 256 257 258 259 259 259 260 261 261 263 265 266 267 270 272 274 275 277 279 280 282 284 285 286 287 288
244 245 243 242 241 241 243 245 245 248 250 253 254 254 253 254 255 255 256 256 256 258 258 259 259 260 261 262 264 266 268 269 271 273 274 276 278 279 281 283 284 285 286 287
245 245 244 243 241 240 241 244 244 245 249 252 253 254 254 255 256 256 255 256 256 257 257 258 258 259 260 262 264 266 268 269 270 272 274 275 276 278 279 281 283 284 285 286
245 246 245 244 242 242 241 241 244 246 248 250 252 253 254 257 257 257 255 255 255 256 256 256 257 258 260 261 264 266 268 269 270 271 273 275 276 277 278 280 282 283 284 286
243 246 246 246 245 243 243 243 244 246 248 250 251 251 252 255 256 256 256 255 255 256 257 257 257 259 260 262 263 265 267 268 270 272 273 274 276 277 278 280 281 282 284 286
242 244 245 244 243 242 243 244 246 248 249 249 250 251 250 253 255 256 257 258 258 258 259 259 259 260 261 262 264 265 266 268 270 272 273 273 274 276 277 279 280 282 283 285
241 244 245 246 247 246 246 246 247 248 250 250 250 252 251 253 255 257 258 258 258 258 259 260 261 262 262 263 263 264 266 267 268 270 272 273 273 275 276 278 279 281 283 285
244 246 246 247 247 247 247 247 248 249 251 253 251 251 252 254 256 256 257 257 258 258 260 261 262 263 263 263 263 264 265 266 268 269 271 273 273 274 275 277 279 281 283 285
247 249 249 249 249 248 247 247 249 251 251 253 253 252 252 254 255 255 256 257 258 259 260 260 261 262 262 263 264 264 265 266 267 269 270 272 273 274 275 277 279 281 283 285
247 249 250 249 248 248 247 248 251 251 250 252 253 253 252 253 254 255 256 258 258 259 260 260 261 261 262 263 264 264 264 265 267 268 270 272 273 274 275 277 279 281 283 285
248 249 251 252 250 250 249 250 251 252 250 251 253 252 252 252 253 254 256 258 258 258 259 259 259 260 261 261 262 262 263 265 266 268 270 271 272 274 275 277 279 281 283 285
249 250 250 251 253 255 251 251 253 256 255 253 254 253 253 254 254 254 255 256 258 257 257 257 257 258 258 260 261 262 263 264 266 268 270 270 272 273 275 277 280 282 284 286
249 251 252 252 254 254 254 253 254 256 257 254 255 254 254 254 255 255 254 255 256 257 256 255 255 256 257 258 261 261 262 264 266 268 269 270 272 273 275 277 279 281 283 285
249 250 251 253 254 254 253 253 253 255 257 256 255 254 254 254 256 255 254 254 255 256 256 254 254 255 257 258 259 261 262 263 265 267 268 270 272 274 276 278 280 282 284 286
250 250 250 251 254 255 253 253 253 255 255 255 255 255 255 256 256 255 254 253 254 255 255 254 255 255 256 257 259 260 261 262 264 266 268 270 272 275 277 278 280 282 284 286
251 251 252 252 254 257 253 253 253 253 254 256 256 255 256 256 256 254 253 253 254 254 254 255 256 257 257 258 259 260 261 262 264 266 267 269 272 274 276 278 280 282 284 286
254 253 253 252 253 256 255 254 253 252 253 255 255 255 255 256 256 254 253 253 253 253 254 254 255 258 259 259 260 261 262 263 264 266 267 270 272 274 276 278 281 283 285 286
257 257 256 255 256 258 257 254 252 251 251 252 253 255 256 257 257 255 255 255 255 255 255 255 257 258 259 260 261 262 263 264 266 268 269 270 272 274 276 278 280 283 285 286
259 260 260 260 258 258 256 254 253 252 252 252 253 255 255 256 255 254 254 253 254 255 255 256 256 257 257 259 261 262 263 265 267 268 269 270 272 275 277 279 281 283 285 287
Height
5727 5731 5736 5742 5746 5750 5753 5755 5758 5762 5765 5768 5771 5776 5780 5783 5786 5790 5792 5795 5797 5800 5801 5802 5804 5805 5806 5807 5807 5808 5808 5808 5807 5807 5807 5806 5806 5805 5803 5802 5800 5799 5797 5795
5717 5722 5730 5733 5737 5740 5743 5746 5750 5754 5757 5759 5762 5767 5771 5774 5778 5782 5785 5787 5790 5793 5794 5796 5797 5798 5799 5800 5801 5801 5802 5801 5801 5801 5801 5800 5799 5798 5797 5796 5794 5793 5791 5789
5708 5717 5720 5723 5727 5731 5734 5739 5743 5745 5748 5750 5753 5757 5762 5766 5769 5773 5777 5780 5782 5785 5787 5789 5790 5791 5793 5794 5794 5795 5795 5795 5795 5794 5794 5793 5792 5791 5791 5789 5788 5786 5785 5783
5699 5706 5709 5713 5718 5722 5726 5731 5734 5736 5738 5741 5744 5746 5755 5758 5762 5765 5769 5772 5775 5777 5779 5781 5783 5784 5785 5787 5787 5787 5788 5788 5788 5787 5787 5786 5786 5785 5784 5783 5781 5779 5778 5776
5690 5696 5700 5704 5710 5714 5718 5721 5724 5726 5728 5731 5734 5736 5745 5749 5753 5758 5761 5764 5767 5769 5771 5773 5775 5777 5778 5779 5779 5780 5780 5781 5781 5780 5780 5779 5779 5778 5776 5776 5774 5772 5771 5769
5681 5686 5690 5696 5701 5705 5708 5711 5714 5716 5717 5720 5727 5727 5733 5741 5746 5750 5753 5755 5758 5761 5763 5764 5766 5768 5769 5770 5771 5772 5772 5773 5773 5773 5772 5772 5771 5770 5769 5768 5767 5765 5764 5762
5672 5676 5681 5686 5690 5695 5698 5702 5704 5706 5707 5711 5718 5718 5724 5734 5738 5742 5745 5747 5749 5751 5754 5756 5758 5760 5761 5762 5763 5764 5764 5765 5765 5765 5764 5764 5763 5762 5761 5760 5759 5758 5756 5754
5662 5666 5672 5677 5682 5686 5689 5693 5696 5699 5701 5705 5707 5709 5719 5725 5729 5732 5735 5737 5739 5742 5744 5747 5749 5750 5752 5753 5754 5755 5756 5756 5756 5757 5756 5756 5755 5754 5753 5752 5751 5750 5748 5746
5653 5658 5663 5667 5672 5676 5679 5682 5688 5690 5691 5694 5696 5702 5709 5714 5718 5722 5725 5727 5730 5732 5735 5737 5739 5741 5743 5744 5745 5746 5747 5747 5748 5748 5748 5747 5746 5746 5745 5744 5743 5741 5740 5738
5644 5648 5653 5656 5660 5664 5670 5674 5676 5677 5680 5683 5687 5693 5699 5704 5709 5713 5715 5717 5720 5722 5725 5727 5730 5731 5733 5735 5736 5737 5738 5738 5739 5739 5739 5738 5738 5737 5736 5735 5734 5733 5731 5729
5635 5638 5642 5646 5650 5656 5660 5663 5665 5668 5670 5674 5678 5687 5692 5694 5698 5702 5705 5707 5709 5712 5715 5718 5720 5722 5723 5724 5726 5727 5728 5729 5729 5729 5729 5729 5729 5728 5727 5726 5725 5724 5722 5721
5626 5629 5632 5637 5642 5645 5648 5652 5656 5658 5662 5665 5668 5678 5683 5685 5688 5691 5695 5698 5700 5702 5705 5707 5709 5711 5713 5714 5716 5717 5718 5719 5719 5720 5719 5719 5719 5718 5718 5717 5716 5714 5713 5711
5616 5618 5622 5626 5631 5634 5637 5642 5645 5648 5651 5653 5657 5667 5674 5676 5678 5681 5684 5687 5690 5693 5695 5697 5699 5701 5703 5704 5706 5707 5707 5709 5709 5710 5709 5709 5709 5709 5708 5707 5706 5705 5703 5702
5606 5608 5612 5616 5620 5624 5627 5631 5634 5637 5639 5643 5649 5657 5663 5666 5668 5671 5674 5677 5679 5682 5684 5686 5689 5691 5692 5694 5695 5696 5697 5698 5699 5699 5699 5699 5699 5699 5698 5697 5696 5695 5693 5692
5595 5598 5602 5606 5610 5612 5615 5620 5623 5626 5630 5634 5641 5646 5654 5656 5658 5660 5663 5666 5668 5671 5673 5675 5678 5679 5681 5682 5684 5685 5686 5687 5688 5688 5689 5689 5689 5688 5688 5687 5686 5684 5683 5681
5585 5589 5592 5595 5599 5601 5603 5608 5613 5617 5621 5625 5629 5635 5644 5644 5645 5648 5651 5654 5657 5660 5662 5665 5666 5668 5670 5671 5673 5674 5675 5676 5677 5678 5678 5678 5678 5678 5677 5676 5675 5674 5672 5670
5576 5579 5581 5584 5588 5587 5591 5601 5605 5608 5611 5614 5617 5627 5631 5632 5634 5637 5640 5643 5645 5648 5650 5652 5654 5656 5659 5660 5661 5663 5664 5665 5666 5667 5667 5667 5667 5667 5666 5665 5664 5663 5661 5659
5567 5569 5570 5573 5576 5575 5588 5593 5595 5597 5601 5604 5608 5614 5617 5619 5622 5625 5628 5630 5633 5636 5638 5640 5642 5645 5647 5648 5650 5651 5653 5654 5655 5656 5656 5656 5656 5656 5655 5654 5653 5652 5650 5648
5557 5559 5560 5562 5563 5566 5577 5583 5585 5585 5589 5595 5597 5602 5605 5607 5608 5612 5616 5618 5621 5624 5626 5628 5630 5632 5635 5637 5638 5640 5641 5642 5643 5644 5645 5645 5645 5644 5644 5643 5642 5641 5639 5637
5548 5549 5551 5552 5553 5557 5569 5574 5574 5574 5577 5585 5586 5589 5593 5594 5595 5603 5605 5606 5609 5612 5614 5616 5619 5621 5623 5625 5626 5628 5630 5631 5632 5633 5633 5633 5633 5633 5632 5631 5630 5629 5627 5625
5538 5539 5541 5543 5543 5547 5560 5562 5562 5564 5571 5573 5573 5576 5579 5581 5585 5590 5591 5594 5597 5600 5602 5604 5607 5609 5611 5613 5615 5616 5618 5620 5621 5621 5621 5622 5621 5621 5620 5619 5618 5617 5615 5613
5528 5530 5532 5534 5534 5542 5550 5550 5552 5554 5558 5559 5561 5563 5566 5570 5573 5576 5579 5582 5584 5587 5590 5592 5595 5597 5599 5601 5603 5605 5606 5608 5608 5609 5609 5610 5609 5609 5608 5607 5606 5605 5603 5601
5519 5522 5523 5525 5529 5534 5536 5537 5540 5542 5544 5547 5549 5552 5555 5558 5561 5564 5567 5570 5573 5576 5578 5581 5583 5585 5587 5589 5591 5593 5594 5595 5596 5597 5597 5598 5597 5597 5596 5595 5594 5592 5590 5588
5509 5511 5512 5514 5519 5522 5524 5525 5528 5530 5532 5535 5537 5541 5544 5546 5549 5553 5556 5559 5561 5564 5566 5569 5571 5574 5576 5577 5579 5581 5582 5582 5583 5584 5585 5585 5585 5585 5584 5583 5581 5580 5578 5575
5500 5501 5501 5503 5509 5510 5512 5514 5516 5518 5521 5524 5527 5529 5532 5535 5537 5540 5544 5547 5549 5552 5555 5557 5559 5561 5564 5566 5567 5568 5569 5570 5571 5572 5573 5573 5573 5572 5572 5571 5569 5567 5565 5563
5490 5491 5491 5494 5498 5497 5500 5502 5504 5506 5509 5512 5515 5517 5520 5523 5526 5528 5532 5535 5537 5540 5542 5545 5547 5549 5551 5553 5555 5556 5557 5558 5559 5560 5560 5560 5560 5560 5559 5558 5556 5554 5552 5550